sat.trackr.live / text

‹ back to catalog

STARLINK-32849

NORAD 62872 · 2025-022U

PAYLOAD ACTIVE UNKNOWN

§ Identity

Operator
Country
US
Launch date
2025-02-01
Launch site
AFWTR
Launch vehicle
Mass (kg)
RCS (m²)

Purposes: comms

External: N2YO · Heavens-Above · Gunter

§ Orbital elements

Epoch: 2026-09-20T19:49:36.946848Z

Period
93.85 min
Inclination
53.1611°
Eccentricity
0.0001139
Mean motion
15.34403755 rev/d
Perigee alt
461.9 km
Apogee alt
463.5 km
Semi-major
6,840.8 km
B*
3.9022e-4
RAAN
299.8773°
Arg perigee
87.0689°
Mean anomaly
273.0444°
Rev number
9,182

§ Raw data

STARLINK-328491 62872U 25022U   26263.82612207  .00012832  00000+0  39022-3 0  99972 62872  53.1611 299.8773 0001139  87.0689 273.0444 15.34403755 91822

JSON: /api/v1/satellites/62872 · /tle

For live sub-satellite position, see the globe view (requires WebGL).

§ Visibility from observer

Set your observer location to see the next 7 days of passes ≥ 10°. The values pass through the URL so the page stays shareable.

No JS? Fill the form by hand. The geolocation button needs JavaScript.